TimeCDT,TemperatureF,Dew PointF,Humidity,Sea Level PressureIn,VisibilityMPH,Wind Direction,Wind SpeedMPH,Gust SpeedMPH,PrecipitationIn,Events,Conditions,WindDirDegrees,DateUTC
12:53 AM,61.0,57.9,90,29.99,10.0,NNW,8.1,-,N/A,,Overcast,330,2013-10-17 05:53:00
1:28 AM,60.8,57.2,88,29.98,10.0,NNW,5.8,-,N/A,,Overcast,330,2013-10-17 06:28:00
1:53 AM,61.0,57.0,87,30.00,9.0,NNW,8.1,-,0.00,Rain,Light Rain,330,2013-10-17 06:53:00
2:15 AM,60.8,57.2,88,29.97,10.0,North,9.2,-,0.00,,Overcast,350,2013-10-17 07:15:00
2:34 AM,60.8,55.4,82,29.97,10.0,NNW,6.9,-,0.00,,Overcast,340,2013-10-17 07:34:00
2:53 AM,59.0,55.9,90,29.99,10.0,North,5.8,-,0.00,,Overcast,350,2013-10-17 07:53:00
3:10 AM,59.0,55.4,88,29.96,10.0,North,9.2,-,N/A,,Overcast,350,2013-10-17 08:10:00
3:38 AM,59.0,55.4,88,29.96,10.0,North,6.9,-,N/A,,Overcast,360,2013-10-17 08:38:00
3:53 AM,59.0,55.9,90,29.98,10.0,NNW,5.8,-,N/A,,Overcast,340,2013-10-17 08:53:00
4:07 AM,59.0,57.2,94,29.96,10.0,NNW,5.8,-,N/A,,Overcast,340,2013-10-17 09:07:00
4:34 AM,60.8,55.4,82,29.97,10.0,NNW,9.2,-,N/A,,Overcast,340,2013-10-17 09:34:00
4:41 AM,60.8,55.4,82,29.97,10.0,NNW,8.1,-,N/A,,Overcast,340,2013-10-17 09:41:00
4:53 AM,59.0,57.0,93,30.00,6.0,NNW,9.2,-,N/A,,Overcast,330,2013-10-17 09:53:00
5:17 AM,59.0,55.4,88,29.99,10.0,NNW,6.9,-,N/A,,Overcast,340,2013-10-17 10:17:00
5:28 AM,57.2,55.4,94,29.99,10.0,NNW,5.8,-,N/A,,Overcast,340,2013-10-17 10:28:00
5:50 AM,57.2,55.4,94,29.99,10.0,North,6.9,-,N/A,,Overcast,350,2013-10-17 10:50:00
5:53 AM,57.9,55.0,90,30.01,10.0,NNW,5.8,-,N/A,,Overcast,340,2013-10-17 10:53:00
6:14 AM,57.2,55.4,94,29.99,10.0,NNW,3.5,-,N/A,,Overcast,340,2013-10-17 11:14:00
6:53 AM,57.9,55.9,93,30.01,10.0,NNW,4.6,-,N/A,,Overcast,340,2013-10-17 11:53:00
7:53 AM,59.0,55.9,90,30.04,10.0,NNW,5.8,-,N/A,,Overcast,340,2013-10-17 12:53:00
8:39 AM,59.0,55.4,88,30.03,6.0,NW,5.8,-,N/A,,Overcast,320,2013-10-17 13:39:00
8:50 AM,59.0,57.2,94,30.04,4.0,NNW,5.8,-,N/A,,Overcast,330,2013-10-17 13:50:00
8:53 AM,59.0,55.9,90,30.06,4.0,NNW,5.8,-,N/A,,Overcast,330,2013-10-17 13:53:00
9:00 AM,59.0,55.4,88,30.04,6.0,NNW,6.9,-,N/A,,Overcast,330,2013-10-17 14:00:00
9:53 AM,59.0,55.9,90,30.08,9.0,NNW,8.1,-,N/A,,Overcast,340,2013-10-17 14:53:00
10:35 AM,60.8,57.2,88,30.06,10.0,NNW,6.9,-,N/A,,Overcast,340,2013-10-17 15:35:00
10:53 AM,62.1,55.9,80,30.08,10.0,North,8.1,-,N/A,,Mostly Cloudy,350,2013-10-17 15:53:00
11:43 AM,64.4,55.4,73,30.05,10.0,North,6.9,-,N/A,,Overcast,350,2013-10-17 16:43:00
11:53 AM,66.0,54.0,65,30.07,10.0,Variable,4.6,-,N/A,,Mostly Cloudy,0,2013-10-17 16:53:00
12:53 PM,66.9,53.1,61,30.04,10.0,North,6.9,-,N/A,,Mostly Cloudy,360,2013-10-17 17:53:00
1:53 PM,69.1,54.0,58,30.02,10.0,North,5.8,-,N/A,,Mostly Cloudy,360,2013-10-17 18:53:00
2:53 PM,69.1,51.1,53,30.01,10.0,WNW,9.2,-,N/A,,Scattered Clouds,300,2013-10-17 19:53:00
3:53 PM,69.1,51.1,53,30.00,10.0,NW,6.9,-,N/A,,Clear,310,2013-10-17 20:53:00
4:53 PM,69.1,51.1,53,30.00,10.0,WNW,6.9,-,N/A,,Mostly Cloudy,300,2013-10-17 21:53:00
5:53 PM,64.9,52.0,63,30.01,10.0,WNW,4.6,-,N/A,,Scattered Clouds,300,2013-10-17 22:53:00
6:53 PM,62.1,53.1,72,30.02,10.0,NW,4.6,-,N/A,,Clear,310,2013-10-17 23:53:00
7:53 PM,57.9,55.0,90,30.02,10.0,Calm,Calm,-,N/A,,Clear,0,2013-10-18 00:53:00
8:53 PM,55.9,54.0,93,30.04,10.0,Calm,Calm,-,N/A,,Clear,0,2013-10-18 01:53:00
9:53 PM,55.9,54.0,93,30.05,10.0,Calm,Calm,-,N/A,,Clear,0,2013-10-18 02:53:00
10:53 PM,54.0,52.0,93,30.04,10.0,Calm,Calm,-,N/A,,Clear,0,2013-10-18 03:53:00
11:53 PM,53.1,51.1,93,30.04,10.0,Calm,Calm,-,N/A,,Clear,0,2013-10-18 04:53:00